Date,TemperatureHighF,TemperatureAvgF,TemperatureLowF,DewpointHighF,DewpointAvgF,DewpointLowF,HumidityHigh,HumidityAvg,HumidityLow,PressureMaxIn,PressureMinIn,WindSpeedMaxMPH,WindSpeedAvgMPH,GustSpeedMaxMPH,PrecipitationSumIn
2013-1-1,50,41,36,42,35,31,86,79,65,29.87,29.25,11,5,18,0.00
2013-1-2,54,48,41,50,44,35,90,85,78,29.98,29.88,13,5,21,0.00
2013-1-3,54,53,51,50,47,44,87,81,76,30.37,29.98,14,7,24,0.00
2013-1-4,55,52,50,49,46,43,85,81,73,30.44,30.35,14,7,23,0.00
2013-1-5,53,52,49,48,45,43,83,79,74,30.43,30.25,11,6,19,0.00
2013-1-6,50,46,42,46,42,38,90,86,81,30.41,30.17,7,2,11,0.00
2013-1-7,50,49,48,48,46,44,92,89,82,30.17,29.99,6,1,11,0.00
2013-1-8,54,49,42,53,46,38,95,89,82,30.13,29.95,15,3,24,0.00
2013-1-9,51,42,38,47,38,34,93,86,78,30.13,30.03,8,3,13,0.00
2013-1-10,45,40,34,42,37,31,92,89,86,30.03,29.93,4,1,8,0.00
2013-1-11,44,41,38,42,39,36,92,91,89,30.01,29.96,4,0,8,0.00
2013-1-12,44,39,35,38,35,30,90,83,77,30.12,29.94,5,2,9,0.00
2013-1-13,39,37,36,36,33,31,88,85,80,30.13,29.96,7,1,10,0.00
2013-1-14,45,38,34,40,34,28,91,85,78,29.96,29.70,4,2,9,0.00
2013-1-15,43,35,30,39,31,25,88,84,77,29.91,29.79,4,1,7,0.00
2013-1-16,37,32,27,32,27,23,88,81,73,29.97,29.84,4,1,6,0.00
2013-1-17,39,36,35,28,27,25,73,69,58,29.99,29.86,11,3,17,0.00
2013-1-18,42,38,36,32,29,27,82,71,62,29.70,29.58,19,9,28,0.00
2013-1-19,41,38,32,35,29,-100,84,75,65,29.73,29.59,103,7,157,0.00
2013-1-20,38,37,36,28,27,25,71,67,62,29.70,29.55,13,5,20,0.00
2013-1-21,61,40,37,60,32,28,96,73,67,29.54,29.52,8,6,104,0.00
2013-1-22,39,38,37,36,35,33,87,86,83,29.84,29.62,14,6,23,0.00
2013-1-23,38,37,36,34,33,32,86,85,84,29.85,29.83,4,1,10,0.00
2013-1-24,40,37,35,38,33,30,90,84,73,30.05,29.96,6,2,10,0.00
2013-1-25,39,37,35,35,32,29,88,80,71,29.95,29.35,7,3,11,0.00
2013-1-26,48,41,36,42,36,32,89,83,72,29.51,28.95,10,4,20,0.00
2013-1-27,50,44,40,46,39,35,87,81,71,29.16,28.72,21,10,27,0.00
2013-1-28,48,44,40,44,38,34,85,78,69,29.29,28.84,20,10,34,0.00
2013-1-29,52,47,45,50,41,36,91,80,64,29.28,28.91,27,9,45,0.00
2013-1-30,50,45,40,41,36,32,84,70,59,29.58,29.05,20,12,32,0.00
2013-1-31,46,43,41,43,38,33,88,82,71,29.60,29.18,14,5,25,0.00
2013-2-1,43,42,40,39,38,36,86,85,84,29.41,29.31,11,6,18,0.00
2013-2-2,51,38,31,38,29,25,84,72,48,30.15,29.78,5,2,9,0.00
2013-2-3,55,46,37,46,39,31,85,77,63,29.98,29.40,17,9,29,0.00
2013-2-4,51,41,34,46,34,30,85,78,65,29.49,29.24,18,9,30,0.11
2013-2-5,49,40,33,42,34,29,86,80,69,29.54,28.99,18,6,31,0.02
2013-2-6,48,40,36,35,30,25,74,65,51,30.08,29.53,9,4,19,0.00
2013-2-7,47,38,31,36,29,23,79,72,62,30.08,29.97,5,1,11,0.00
2013-2-8,50,41,34,40,33,30,87,75,59,30.13,30.02,8,2,14,0.02
2013-2-9,44,41,39,40,36,34,87,82,77,30.09,29.80,8,1,13,0.01
2013-2-10,42,41,39,37,35,32,86,79,71,29.80,29.42,18,8,27,0.02
2013-2-11,47,42,40,37,32,27,86,70,58,29.94,29.50,15,8,26,0.01
2013-2-12,41,40,39,30,29,27,68,64,61,30.08,29.94,10,5,17,0.00
2013-2-13,43,38,35,40,32,25,88,78,61,30.07,29.49,11,5,16,0.26
2013-2-14,55,46,39,49,40,36,92,82,64,29.75,29.50,13,5,22,0.00
2013-2-15,59,46,38,47,38,32,90,76,53,30.09,29.75,8,2,12,0.00
2013-2-16,51,42,34,44,37,30,89,82,74,30.10,30.07,2,0,4,0.00
2013-2-17,55,46,33,43,38,27,85,75,56,30.11,30.03,6,1,11,0.00
2013-2-18,53,38,29,44,30,25,89,75,53,30.10,30.05,3,1,4,0.00
2013-2-19,50,39,29,42,33,25,89,81,69,30.14,30.07,4,1,8,0.00
2013-2-20,46,42,37,40,36,28,88,78,67,30.33,30.13,9,5,16,0.00
2013-2-21,41,39,37,28,27,24,67,62,57,30.33,30.28,12,5,21,0.00
2013-2-22,40,38,36,26,24,21,63,57,53,30.31,30.27,8,3,14,0.00
2013-2-23,46,38,34,32,28,24,78,65,52,30.38,30.24,4,1,8,0.01
2013-2-24,48,40,35,41,33,29,83,79,67,30.47,30.37,6,1,11,0.06
2013-2-25,52,40,32,44,33,28,90,78,58,30.63,30.47,4,1,8,0.00
2013-2-26,55,41,31,46,34,26,91,78,55,30.69,30.62,7,2,11,0.01
2013-2-27,56,40,30,43,32,26,89,77,57,30.68,30.56,4,1,6,0.00
2013-2-28,56,41,30,43,34,26,88,76,59,30.57,30.49,4,1,6,0.00
2013-3-1,57,44,32,40,33,26,82,67,48,30.54,30.41,6,1,9,0.01
2013-3-2,65,47,32,45,37,26,87,69,46,30.41,30.23,8,2,11,0.00
2013-3-3,52,47,45,43,39,36,82,74,63,30.25,30.08,7,1,10,0.00
2013-3-4,50,44,36,37,35,29,78,69,58,30.08,29.73,8,2,11,0.00
2013-3-5,53,41,32,43,33,27,88,75,56,29.72,29.62,4,1,8,0.00
2013-3-6,45,42,36,38,36,30,83,79,77,29.72,29.66,6,2,11,0.00
2013-3-7,46,44,43,42,40,37,89,86,80,29.66,29.58,11,5,23,0.15
2013-3-8,43,42,40,39,38,36,91,86,78,29.73,29.59,12,7,22,0.12
2013-3-9,42,41,40,38,37,33,91,87,73,29.85,29.73,7,4,18,0.08
2013-3-10,44,37,31,35,28,22,81,69,59,30.11,29.91,12,4,21,0.06
2013-3-11,40,32,26,30,22,16,78,67,51,30.13,30.10,9,3,16,0.06
2013-3-12,49,37,26,33,26,17,73,63,52,30.11,29.87,6,2,11,0.00
2013-3-13,50,39,32,33,26,22,78,61,40,29.97,29.84,5,2,12,0.00
2013-3-14,47,39,30,38,32,22,81,74,66,29.96,29.56,8,3,14,0.00
2013-3-15,52,44,33,43,36,27,81,73,59,29.56,29.33,11,4,17,0.04
2013-3-16,42,37,31,39,34,26,88,86,79,29.36,29.14,8,2,14,0.11
2013-3-17,46,41,34,41,37,31,88,85,76,29.28,29.11,12,4,19,0.09
2013-3-18,43,39,35,39,35,30,87,83,80,29.52,29.28,12,6,20,0.06
2013-3-19,38,37,36,35,33,31,89,85,81,29.67,29.52,10,5,20,0.40
2013-3-20,74,39,36,50,33,29,88,80,42,30.05,29.68,123,8,194,0.05
2013-3-21,47,41,38,36,31,28,81,67,58,30.10,30.05,17,9,27,0.05
2013-3-22,40,38,36,33,30,27,81,71,65,30.08,30.01,21,14,37,0.01
2013-3-23,41,37,36,30,27,24,74,68,58,30.23,30.07,21,13,34,0.00
2013-3-24,39,38,36,27,25,23,65,60,56,30.32,30.21,18,10,27,0.00
2013-3-25,40,38,37,27,26,24,68,61,57,30.32,30.26,11,6,21,0.00
2013-3-26,43,38,34,32,27,21,75,66,58,30.27,30.16,12,4,21,0.02
2013-3-27,45,38,34,35,28,25,79,70,54,30.17,30.09,9,3,16,0.05
2013-3-28,50,41,34,34,29,25,79,63,47,30.11,30.04,10,3,14,0.01
2013-3-29,47,38,31,34,28,23,80,67,51,30.04,29.93,10,2,14,0.02
2013-3-30,49,37,28,32,26,20,77,65,46,30.01,29.94,5,1,10,0.00
2013-3-31,50,37,25,36,25,20,85,62,39,30.02,29.99,8,3,15,0.00
2013-4-1,46,40,34,26,24,23,63,54,44,30.09,30.00,8,4,13,0.00
2013-4-2,50,41,34,32,28,22,75,58,44,30.24,30.09,10,2,13,0.00
2013-4-3,54,42,30,37,29,23,82,61,40,30.30,30.24,8,2,11,0.00
2013-4-4,54,44,37,36,32,26,77,62,35,30.28,30.22,8,2,16,0.01
2013-4-5,49,42,32,34,30,23,79,62,47,30.25,30.21,7,2,12,0.01
2013-4-6,60,42,27,39,28,22,84,61,33,30.25,30.15,11,3,14,0.00
2013-4-7,42,40,38,37,34,30,85,80,67,30.18,30.01,6,2,11,0.07
2013-4-8,50,42,38,36,32,26,86,69,52,30.00,29.75,12,6,21,0.04
2013-4-9,52,44,38,33,29,25,70,56,42,29.75,29.67,11,6,21,0.01
2013-4-10,47,43,39,38,35,31,84,75,70,29.71,29.59,9,4,14,0.00
2013-4-11,51,44,40,41,36,33,84,76,64,29.60,29.42,9,5,17,0.00
2013-4-12,49,44,40,39,36,33,79,73,67,29.63,29.38,8,3,11,0.00
2013-4-13,58,48,41,45,40,35,85,75,58,29.74,29.45,11,4,18,0.02
2013-4-14,63,56,49,51,47,43,84,72,55,29.47,29.37,23,10,36,0.06
2013-4-15,63,54,50,48,44,42,81,69,49,29.72,29.43,21,9,40,0.15
2013-4-16,58,52,48,45,42,35,83,69,45,29.78,29.34,30,12,46,0.02
2013-4-17,55,48,42,51,40,34,89,77,64,29.81,29.08,14,5,26,0.20
2013-4-18,57,52,44,46,42,34,85,69,55,29.87,29.04,24,10,40,0.01
2013-4-19,57,44,38,39,34,31,79,70,48,30.27,29.86,4,2,9,0.00
2013-4-21,60,51,44,44,40,35,75,65,44,30.12,29.80,18,7,29,0.00
2013-4-22,61,50,42,48,40,35,81,68,50,29.81,29.52,20,8,33,0.00
2013-4-23,62,54,48,43,39,35,76,60,41,30.01,29.66,21,9,30,0.00
2013-4-24,63,53,46,52,41,32,89,66,42,30.18,29.85,11,3,18,0.20
2013-4-25,59,49,42,42,37,32,72,63,49,30.18,29.97,12,5,21,0.00
2013-4-26,56,45,37,42,36,32,82,70,49,29.99,29.81,11,3,22,0.08
2013-4-27,61,48,38,39,33,27,81,59,33,30.10,29.96,11,3,20,0.00
2013-4-28,62,50,41,44,37,31,77,62,43,30.04,29.54,17,10,29,0.02
2013-4-29,62,50,41,40,35,31,78,58,33,30.04,29.54,14,8,27,0.00
2013-4-30,60,49,37,37,32,27,75,54,29,30.28,30.04,10,4,16,0.01
2013-5-1,65,52,44,45,37,28,72,57,32,30.26,30.06,14,6,23,0.01
2013-5-2,60,51,42,42,38,34,76,62,44,30.26,29.96,14,5,24,0.00
2013-5-3,58,52,45,49,45,40,87,77,68,29.96,29.62,16,7,26,0.15
2013-5-4,55,48,38,42,38,33,83,69,48,29.85,29.65,18,8,30,0.12
2013-5-5,68,58,50,54,47,41,76,68,52,30.01,29.85,15,6,27,0.00
2013-5-6,64,57,51,52,48,44,82,73,63,30.03,29.97,11,4,17,0.00
2013-5-7,71,57,42,54,45,39,92,68,46,30.05,29.88,8,2,13,0.00
2013-5-8,59,52,48,50,45,41,87,77,62,29.88,29.48,11,4,21,0.00
2013-5-9,60,50,44,45,43,39,87,76,51,29.52,29.33,9,3,15,0.11
2013-5-10,64,53,45,50,44,37,89,75,51,29.60,29.33,14,5,28,0.07
2013-5-11,59,50,42,49,43,37,83,75,58,29.68,29.44,15,6,26,0.07
2013-5-12,58,51,43,48,42,37,85,73,59,29.73,29.51,14,6,24,0.00
2013-5-13,53,46,39,45,38,34,85,73,61,29.56,29.36,19,9,29,0.11
2013-5-14,58,50,44,43,39,35,78,67,52,29.39,29.31,17,9,28,0.02
2013-5-15,58,47,38,44,39,32,84,74,58,29.39,29.26,8,2,13,0.20
2013-5-16,58,50,40,45,41,36,89,72,52,29.69,29.34,11,4,16,0.00
2013-5-17,66,53,43,46,41,38,86,65,43,29.84,29.69,7,2,12,0.01
2013-5-18,62,56,53,54,49,42,88,78,64,29.82,29.66,11,3,31,0.25
2013-5-19,59,55,51,54,51,48,92,87,80,29.96,29.78,8,2,15,0.00
2013-5-20,71,62,53,63,56,48,91,80,66,30.01,29.89,8,2,12,0.05
2013-5-21,64,55,47,52,46,42,90,72,56,30.07,30.00,8,2,14,0.00
2013-5-22,66,54,42,45,39,32,79,59,33,30.07,29.97,12,4,20,0.02
2013-5-23,58,49,41,38,33,31,71,56,41,29.98,29.85,11,5,21,0.00
2013-5-24,61,52,44,42,38,32,74,58,43,30.20,29.86,10,4,22,0.06
2013-5-25,71,56,37,50,39,32,87,57,28,30.20,30.07,11,4,19,0.00
2013-5-26,68,57,44,50,44,35,78,62,48,30.09,29.74,9,4,15,0.00
2013-5-27,56,53,50,45,43,37,79,69,60,29.74,29.44,12,5,19,0.01
2013-5-28,62,54,48,49,46,41,85,73,59,29.78,29.51,8,3,14,0.05
2013-5-29,68,58,47,54,47,41,81,68,56,29.88,29.78,6,2,13,0.00
2013-5-30,65,59,51,52,46,41,76,62,55,30.06,29.84,7,2,12,0.00
2013-5-31,79,60,48,56,49,43,86,68,37,30.15,30.02,11,3,17,0.00
2013-6-1,66,56,49,52,45,36,87,67,47,30.26,30.15,14,3,21,0.06
2013-6-2,68,57,40,46,41,32,79,57,40,30.41,30.26,10,3,14,0.02
2013-6-3,71,59,45,56,48,38,83,68,54,30.50,30.40,8,2,12,0.00
2013-6-4,69,61,54,53,49,46,78,65,49,30.50,30.32,8,2,12,0.00
2013-6-5,63,56,52,53,48,45,87,76,65,30.32,30.16,8,3,13,0.00
2013-6-6,69,59,52,52,48,46,79,69,55,30.26,30.17,9,3,13,0.00
2013-6-7,68,57,49,54,48,43,85,72,58,30.34,30.26,9,3,14,0.00
2013-6-8,71,57,45,53,47,38,86,69,51,30.32,30.14,10,3,15,0.00
2013-6-9,65,58,53,51,49,46,82,72,59,30.14,30.01,12,4,18,0.00
2013-6-10,62,56,51,50,47,43,81,72,61,30.03,29.91,8,4,14,0.00
2013-6-11,65,56,48,54,50,43,86,78,63,29.91,29.69,8,3,12,0.04
2013-6-12,69,61,55,60,52,46,91,76,57,29.69,29.54,13,4,21,0.14
2013-6-13,73,55,-5,52,44,-39,83,66,17,29.74,29.51,102,5,102,12.14
2013-6-14,70,59,48,51,47,41,84,64,46,29.78,29.58,13,4,24,0.07
2013-6-15,63,56,51,49,46,43,83,71,52,29.58,29.40,14,5,23,0.04
2013-6-16,66,57,48,60,49,44,99,74,55,29.98,29.52,5,3,34,0.01
2013-6-17,71,61,53,56,51,46,83,70,56,30.06,29.98,11,3,16,0.00
2013-6-18,68,61,55,55,52,49,84,73,62,30.03,29.89,7,1,11,0.00
2013-6-19,75,62,53,51,48,44,82,61,36,30.01,29.92,11,4,21,0.00
2013-6-20,73,63,51,54,50,43,79,64,48,30.00,29.78,8,3,16,0.00
2013-6-21,71,62,58,60,53,46,86,73,55,29.79,29.60,8,2,15,0.08
2013-6-22,66,60,54,56,50,47,82,71,60,29.59,29.26,11,5,18,0.08
2013-6-23,68,59,51,59,50,44,84,73,62,29.86,29.31,11,4,21,0.08
2013-6-24,68,59,51,48,45,42,77,60,44,30.22,29.87,8,3,16,0.01
2013-6-25,68,58,45,49,45,38,81,63,44,30.35,30.23,8,2,14,0.00
2013-6-26,74,60,51,52,47,43,83,64,38,30.40,30.34,8,2,13,0.00
2013-6-27,70,59,48,58,51,42,85,75,63,30.40,30.08,7,2,11,0.01
2013-6-28,74,62,54,62,54,43,90,77,56,30.08,29.82,13,5,21,0.15
2013-6-29,69,59,50,53,47,42,79,65,47,30.10,30.01,10,5,17,0.00
2013-6-30,71,63,55,55,52,45,79,67,55,30.06,29.80,20,8,31,0.00
2013-7-1,72,60,50,49,44,38,81,58,34,29.87,29.79,11,5,20,0.00
2013-7-2,60,55,49,53,48,38,87,77,66,29.85,29.42,8,2,12,0.14
2013-7-3,72,63,56,60,54,49,91,72,52,29.78,29.42,11,4,19,0.00
2013-7-4,71,63,57,63,52,46,87,68,51,30.10,29.69,18,6,27,0.17
2013-7-5,76,64,56,55,51,46,80,63,45,30.34,30.10,14,5,22,0.00
2013-7-6,82,66,51,58,52,46,87,62,36,30.38,30.26,13,4,21,0.00
2013-7-7,77,67,59,59,56,52,79,66,51,30.60,30.38,9,4,14,0.00
2013-7-8,73,65,58,60,56,51,85,73,60,30.61,30.45,6,2,9,0.00
2013-7-9,90,70,57,68,57,52,90,67,36,30.45,30.32,10,2,15,0.00
2013-7-10,68,62,59,56,53,50,81,73,60,30.42,30.34,7,3,11,0.00
2013-7-11,75,64,56,61,55,51,84,74,59,30.37,30.24,8,2,12,0.00
2013-7-12,93,74,56,68,58,51,91,64,35,30.25,30.15,8,3,12,0.00
2013-7-13,74,65,59,65,57,52,91,76,61,30.31,30.19,11,3,16,0.00
2013-7-14,81,67,59,58,52,46,86,62,37,30.31,30.12,12,4,21,0.00
2013-7-15,79,67,56,57,53,46,81,62,45,30.16,30.11,13,6,21,0.00
2013-7-16,80,71,62,62,57,52,81,62,44,30.22,30.14,13,5,21,0.00
2013-7-17,80,70,57,60,55,51,86,62,40,30.30,30.21,11,4,18,0.00
2013-7-18,90,75,63,66,60,54,82,61,39,30.35,30.28,8,3,16,0.00
2013-7-19,79,68,56,61,56,50,84,66,47,30.39,30.35,10,3,16,0.00
2013-7-20,77,66,60,60,56,53,82,71,54,30.37,30.28,12,3,18,0.00
2013-7-21,74,65,61,59,55,52,78,70,54,30.30,30.14,11,3,17,0.00
2013-7-22,69,64,61,60,57,54,84,79,71,30.13,29.99,7,2,10,0.00
2013-7-23,75,67,63,72,62,58,94,84,73,29.99,29.84,7,2,12,0.34
2013-7-24,79,69,63,69,62,58,95,80,58,29.88,29.84,8,2,13,0.01
2013-7-25,74,66,58,67,61,54,93,85,73,29.87,29.78,6,1,10,0.24
2013-7-26,82,68,59,65,58,53,92,74,52,29.82,29.79,7,2,10,0.00
2013-7-27,81,65,53,64,56,49,91,74,47,29.81,29.65,7,2,13,0.01
2013-7-28,67,63,60,62,59,55,93,86,77,29.66,29.47,6,2,10,0.45
2013-7-29,76,64,54,67,58,50,94,81,60,29.69,29.59,8,2,10,0.05
2013-7-30,74,63,55,62,54,50,90,75,45,29.75,29.69,10,4,17,0.12
2013-7-31,75,63,52,59,53,48,90,70,45,29.84,29.75,8,2,13,0.05
2013-8-1,74,67,60,68,62,57,96,86,71,29.76,29.58,7,2,11,0.20
2013-8-2,78,68,62,66,58,51,92,72,47,29.59,29.51,14,4,21,0.07
2013-8-3,72,64,59,54,52,48,80,65,45,29.82,29.54,17,7,29,0.01
2013-8-4,75,64,51,57,51,45,87,66,44,29.86,29.81,12,4,19,0.00
2013-8-5,67,61,53,58,54,47,87,78,69,29.86,29.72,4,1,6,0.00
2013-8-6,72,60,48,56,49,44,89,68,45,29.96,29.80,8,2,14,0.00
2013-8-7,74,62,51,59,52,46,88,71,48,30.04,29.93,6,1,9,0.00
2013-8-8,77,64,53,62,55,47,89,74,50,30.04,29.90,8,1,11,0.01
2013-8-9,74,64,56,62,54,47,85,71,53,30.06,29.85,9,3,17,0.01
2013-8-10,69,61,51,53,49,43,80,64,51,30.08,29.94,11,3,16,0.00
2013-8-11,74,62,53,54,49,45,83,64,38,29.95,29.80,14,5,24,0.00
2013-8-12,78,62,53,56,50,46,84,67,37,29.98,29.79,8,3,15,0.04
2013-8-13,73,62,51,52,47,44,82,62,41,30.11,29.97,8,2,11,0.00
2013-8-14,74,64,53,59,53,45,80,67,52,30.11,29.91,8,2,14,0.00
2013-8-15,75,66,62,67,60,56,90,81,67,29.91,29.70,11,3,18,0.14
2013-8-16,75,65,54,60,55,48,89,72,51,29.84,29.69,11,4,20,0.00
2013-8-17,72,62,54,65,55,48,88,78,60,29.82,29.35,13,4,20,0.19
2013-8-18,69,60,54,53,50,46,83,69,50,29.76,29.39,15,6,28,0.00
2013-8-19,73,61,53,54,49,46,82,66,45,30.14,29.75,13,5,21,0.00
2013-8-20,70,61,52,57,52,46,87,74,56,30.21,30.13,9,3,14,0.07
2013-8-21,76,66,60,65,58,55,90,77,59,30.13,29.99,9,2,14,0.02
2013-8-22,74,64,60,66,58,55,88,81,67,30.11,30.01,6,2,11,0.04
2013-8-23,72,64,54,66,59,50,94,82,70,30.01,29.84,6,1,9,0.01
2013-8-24,69,63,60,60,57,55,89,81,69,29.95,29.86,5,1,8,0.01
2013-8-25,74,64,58,64,58,53,91,82,68,30.15,29.94,4,1,8,0.01
2013-8-26,74,63,54,65,57,50,92,81,66,30.16,30.07,6,1,10,4.63
2013-8-27,81,65,53,62,56,49,90,74,49,30.19,30.04,7,2,14,0.00
2013-8-28,68,65,58,57,54,50,78,68,62,30.21,30.07,7,3,13,0.00
2013-8-29,72,64,55,59,55,48,84,73,58,30.00,29.97,10,5,19,0.00
2013-8-30,72,62,52,60,54,42,88,75,64,30.01,29.78,18,6,34,0.00
2013-8-31,70,58,48,49,43,36,82,61,37,30.23,30.03,14,5,26,0.00
2013-9-1,62,59,55,54,49,44,78,71,63,30.22,30.03,17,8,27,0.00
2013-9-2,78,68,61,61,57,54,81,70,54,30.20,30.00,18,8,29,0.00
2013-9-3,79,68,60,62,56,51,84,69,46,30.22,30.15,11,5,21,0.00
2013-9-4,75,63,52,60,50,45,89,65,42,30.16,29.89,11,3,19,0.00
2013-9-5,70,60,50,54,49,43,81,68,46,29.89,29.82,8,2,11,0.00
2013-9-6,60,55,50,48,46,43,84,73,57,29.90,29.85,6,1,13,0.34
2013-9-7,67,58,50,58,50,45,91,78,60,29.92,29.71,12,5,25,0.13
2013-9-8,69,56,44,53,46,38,87,70,50,29.97,29.91,7,2,11,0.00
2013-9-9,70,55,49,55,48,43,88,77,49,30.13,29.92,7,1,14,0.02
2013-9-10,74,59,49,52,47,43,83,66,40,30.21,30.12,8,3,17,0.01
2013-9-11,67,59,54,58,51,46,82,74,67,30.20,30.04,4,1,8,0.04
2013-9-12,73,64,58,59,56,54,87,77,53,30.05,29.83,11,3,18,0.07
2013-9-13,61,55,50,57,49,44,89,81,67,30.07,29.91,4,1,9,0.24
2013-9-14,71,56,46,50,45,40,85,67,39,30.03,29.88,7,2,11,0.00
2013-9-15,62,54,36,58,46,31,87,75,58,29.88,29.11,18,8,27,0.15
2013-9-16,62,50,42,47,42,37,85,73,55,29.25,29.20,14,6,22,0.00
2013-9-17,66,54,45,48,42,38,76,67,49,29.33,29.21,14,6,21,0.00
2013-9-18,67,52,40,50,41,36,87,68,43,29.68,29.34,11,3,21,0.00
2013-9-19,56,50,45,52,46,39,89,86,76,29.72,29.50,9,2,16,0.24
2013-9-20,64,56,-9,55,48,-21,93,77,56,29.99,29.72,103,6,103,1.15
2013-9-21,67,61,54,59,53,47,84,76,71,30.05,29.98,103,4,103,0.00
2013-9-22,76,67,59,61,57,53,86,73,52,30.25,30.04,105,7,105,0.00
2013-9-23,68,60,51,62,54,47,92,82,70,30.24,30.10,5,1,8,0.00
2013-9-24,64,58,50,60,54,46,92,87,82,30.09,29.94,6,1,9,0.00
2013-9-25,58,56,47,55,51,41,90,82,69,30.03,29.88,5,1,11,0.00
2013-9-26,66,55,47,54,48,42,89,77,59,30.10,30.03,8,2,14,0.00
2013-9-27,64,58,54,57,52,49,88,81,72,30.04,29.91,2,0,4,0.01
2013-9-28,73,60,53,62,53,49,91,78,58,29.91,29.84,5,2,10,0.00
2013-9-29,65,58,54,56,51,49,87,79,66,29.93,29.89,9,5,15,0.00
2013-9-30,64,58,56,53,51,49,83,78,67,29.92,29.83,11,6,17,0.00
2013-10-1,61,57,54,51,48,45,79,72,63,29.91,29.84,13,8,24,0.00
2013-10-2,59,57,55,55,52,49,89,84,79,29.86,29.76,11,6,23,0.11
2013-10-3,63,59,57,62,57,54,97,94,89,29.77,29.51,8,4,13,0.38
2013-10-4,66,60,54,66,58,51,99,95,82,29.76,29.50,7,1,14,0.12
2013-10-5,66,58,53,58,52,47,95,83,69,30.06,29.76,9,3,15,0.00
2013-10-6,66,61,52,60,56,47,89,84,76,30.05,29.99,9,3,17,0.00
2013-10-7,70,64,60,61,58,55,89,80,66,30.03,29.95,13,5,24,0.00
2013-10-8,68,60,54,58,53,46,88,77,65,30.10,29.93,14,6,24,0.01
2013-10-9,61,52,46,52,41,33,87,67,43,30.08,29.84,14,6,27,0.00
2013-10-10,59,48,41,42,35,32,79,61,46,30.41,30.08,7,2,14,0.00
2013-10-11,55,51,46,43,39,35,70,65,60,30.49,30.40,6,2,12,0.00
2013-10-12,61,53,48,50,44,40,81,73,61,30.47,30.26,6,2,11,0.00
2013-10-13,60,53,48,50,47,42,88,78,64,30.27,30.02,8,2,17,0.17
2013-10-14,59,54,51,54,49,46,90,85,74,30.02,29.91,6,2,10,0.06
2013-10-15,56,51,44,49,46,40,87,83,77,29.98,29.87,5,1,11,0.00
2013-10-16,55,50,42,50,46,39,92,87,82,29.96,29.56,13,4,21,0.41
2013-10-17,55,51,48,54,49,46,96,94,91,29.85,29.59,4,1,8,0.15
2013-10-18,56,54,52,54,51,48,94,88,85,29.99,29.69,12,6,21,0.27
2013-10-19,58,55,53,57,54,52,99,97,94,29.69,29.42,8,3,14,0.61
2013-10-20,62,55,48,62,53,47,99,96,88,29.45,29.39,6,1,10,0.08
2013-10-21,59,55,50,58,53,49,96,92,84,29.49,29.23,6,2,12,0.30
2013-10-22,62,58,56,61,57,54,99,98,95,29.24,29.08,4,1,8,0.47
2013-10-23,63,55,47,61,51,40,99,86,65,29.50,28.95,17,5,31,0.07
2013-10-24,64,51,45,51,44,38,88,76,56,29.88,29.50,10,3,17,0.00
2013-10-25,61,56,50,60,52,45,97,89,82,29.84,29.27,12,4,18,0.24
2013-10-26,58,54,48,54,49,44,91,83,70,29.40,29.10,11,5,24,0.17
2013-10-27,58,52,45,50,46,41,92,82,68,29.14,28.78,20,7,34,0.18
2013-10-28,61,51,47,52,46,41,89,82,64,29.26,28.84,12,5,23,0.02
2013-10-29,60,49,43,47,41,37,86,74,54,29.80,29.26,15,5,22,0.00
2013-10-30,56,47,38,50,42,34,89,81,68,29.88,29.55,13,3,21,0.02
2013-10-31,59,49,42,48,42,38,88,80,60,29.77,29.55,17,5,26,0.14
2013-11-1,58,47,40,46,41,35,87,79,61,29.56,29.50,16,5,27,0.04
2013-11-2,50,43,34,47,39,30,91,86,78,29.52,28.79,11,3,24,0.11
2013-11-3,58,46,36,42,36,30,85,70,44,29.21,28.84,12,6,24,0.01
2013-11-4,60,42,32,45,33,26,88,72,48,29.32,29.14,7,2,12,0.00
2013-11-5,52,39,29,45,33,25,89,81,68,29.28,29.11,6,2,11,0.01
2013-11-6,50,42,36,46,38,33,89,86,80,29.31,29.17,8,2,12,0.01
2013-11-7,53,44,36,44,38,34,92,81,62,29.41,29.31,19,5,29,0.19
2013-11-8,56,45,36,46,39,32,87,82,66,29.49,29.40,9,3,17,0.02
2013-11-9,48,39,34,45,35,29,92,85,75,29.59,29.44,7,2,11,0.01
2013-11-10,56,43,32,44,35,28,89,74,55,30.09,29.59,8,2,14,0.01
2013-11-11,58,49,44,54,43,36,90,79,69,29.99,29.77,12,3,18,0.04
2013-11-12,57,47,42,46,40,36,89,78,63,30.30,29.98,12,4,23,0.02
2013-11-13,51,47,40,45,41,36,90,80,66,30.33,29.72,15,6,24,0.04
2013-11-14,54,46,40,44,36,30,82,68,50,30.43,29.72,10,4,18,0.00
2013-11-15,54,49,40,48,43,32,83,80,72,30.42,30.28,13,5,21,0.00
2013-11-16,58,53,45,49,46,39,84,79,71,30.30,30.14,15,7,28,0.00
2013-11-17,52,42,33,48,38,30,91,84,75,30.33,29.87,3,0,5,0.05
2013-11-18,52,41,33,50,36,28,94,83,64,29.87,29.70,6,2,11,0.01
2013-11-19,49,37,27,37,30,23,86,74,50,29.96,29.51,14,3,25,0.01
2013-11-20,50,43,37,41,36,31,85,76,65,29.73,29.31,12,5,20,0.07
2013-11-21,46,39,35,33,29,25,73,67,59,30.11,29.73,8,2,18,0.00
2013-11-22,50,37,32,34,28,24,79,69,52,30.23,30.11,4,2,8,0.00
2013-11-23,55,40,33,45,33,28,87,76,58,30.39,30.22,4,2,8,0.00
2013-11-24,50,40,31,44,34,26,87,79,64,30.66,30.39,3,1,7,0.00
2013-11-25,50,36,28,41,30,25,89,81,65,30.68,30.64,4,1,5,0.01
2013-11-26,50,44,33,48,41,29,94,90,83,30.65,30.44,10,3,16,0.08
2013-11-27,60,51,48,55,48,44,96,89,73,30.49,30.40,9,4,16,0.01
2013-11-28,49,43,36,47,39,33,94,88,83,30.58,30.29,8,1,14,0.01
2013-11-29,52,46,42,46,39,32,90,76,63,30.29,30.01,16,5,29,0.11
2013-11-30,50,43,37,42,36,30,87,76,65,30.34,30.24,8,3,14,0.00
2013-12-1,58,46,34,52,40,27,92,82,66,30.56,30.30,8,2,13,0.01
2013-12-2,49,44,36,46,40,32,92,86,78,30.55,30.27,12,3,21,0.00
2013-12-3,52,49,41,46,44,36,86,81,78,30.28,30.05,14,7,22,0.15
2013-12-4,50,41,34,44,36,31,92,83,70,30.22,29.98,14,4,23,0.01
2013-12-5,49,41,32,45,35,24,89,77,64,30.06,29.28,31,10,59,0.40
2013-12-6,44,35,30,31,26,22,76,69,56,30.29,30.06,4,1,9,0.00
2013-12-7,51,42,35,47,36,28,86,82,76,30.19,29.85,18,3,25,0.00
2013-12-8,56,53,50,52,49,45,88,85,79,29.88,29.78,17,9,28,0.00
2013-12-9,57,54,51,52,48,43,86,81,72,30.14,29.88,15,8,24,0.00
2013-12-10,58,53,51,49,45,42,79,75,70,30.17,30.09,15,6,21,0.00
2013-12-11,59,51,39,50,44,33,80,77,69,30.20,29.98,12,4,21,0.00
2013-12-12,55,51,41,51,46,36,91,85,72,29.98,29.87,13,3,19,0.27
2013-12-13,57,52,46,53,47,38,94,84,72,29.89,29.67,13,4,23,0.04
2013-12-14,54,49,42,49,42,35,83,76,68,29.86,29.37,21,10,39,0.03
2013-12-15,52,46,40,45,40,35,89,80,70,29.80,29.46,17,5,30,0.22
2013-12-16,49,45,40,46,38,34,89,78,70,29.90,29.45,16,8,30,0.08
2013-12-17,50,42,34,40,35,30,87,76,66,30.02,29.73,13,5,20,0.01
2013-12-18,53,49,45,47,41,34,82,74,63,29.72,28.72,24,8,40,0.04
2013-12-19,48,42,38,36,33,30,81,71,61,29.41,28.75,26,11,40,0.07
2013-12-20,53,46,40,48,40,33,84,78,72,29.67,29.29,26,9,46,0.25
2013-12-21,52,47,40,45,39,35,84,75,67,29.43,29.20,18,9,30,0.12
2013-12-22,44,41,36,38,35,31,85,79,72,29.46,29.23,18,9,30,0.15
2013-12-23,51,43,37,45,38,30,87,80,77,29.46,28.27,18,7,27,0.09
2013-12-24,51,44,42,44,33,28,79,65,50,28.37,28.17,28,16,42,0.02
2013-12-25,49,44,42,36,35,33,75,69,61,29.01,28.37,30,12,41,0.01
2013-12-26,49,41,36,40,34,30,85,77,66,29.23,28.65,13,3,25,0.00
2013-12-27,49,46,42,42,39,35,82,77,72,28.66,28.12,24,13,40,0.11
2013-12-28,48,44,41,39,37,34,81,77,70,29.40,28.61,21,9,35,0.02
2013-12-29,49,42,36,45,36,32,90,81,73,29.74,29.41,13,4,21,0.06
2013-12-30,51,44,38,47,41,35,90,87,80,29.56,29.20,8,3,18,0.60
2013-12-31,47,44,36,43,39,34,93,85,76,29.56,29.21,11,4,21,0.04
2014-1-1,49,45,42,46,40,36,90,83,78,29.25,28.64,18,5,30,0.06
2014-1-2,50,45,43,45,40,35,88,81,70,29.09,28.63,15,6,24,0.01